Terug naar catalogus

STARLINK-35182

ActiefCommunicatieVLEO
NORAD 65504·PAYLOAD·🇺🇸 United States

Gelanceerd Sep 5, 2025 vanaf Cape Canaveral Space Force Station

Loading…

Volgende Passages (komende 24 uur)

TLE

VersSource: CelesTrak SupGP

Epoch: Sep 14, 2026, 20:47 UTC

1 65504C 25198N   26257.86645833 -.00029211  00000+0 -86322-3 0  2577
2 65504  53.1563 108.3006 0001229  87.6305 146.1879 15.34398635    10

Volg STARLINK-35182 in realtime met AllMySat

Download on the App Store